Regional Weather Roundup
Issued by NWS

Home | Current Version | Previous Version | Text Only | Print | Product List | Glossary On
Versions: 1 2 3 4 5 6 7 8 9 10 11 12 13 14 15 16 17 18 19 20 21 22 23 24 25 26 27 28 29 30 31 32 33 34 35 36 37 38 39 40 41 42 43 44 45 46 47 48 49 50
612
ASUS44 KLUB 021301
RWRTX
WEST TEXAS WEATHER ROUNDUP
NATIONAL WEATHER SERVICE LUBBOCK TX
800 AM CDT MON MAY 02 2016

NOTE: "FAIR" INDICATES FEW OR NO CLOUDS BELOW 12,000 FEET WITH NO
SIGNIFICANT WEATHER AND/OR OBSTRUCTIONS TO VISIBILITY.

TXZ004-006>008-010-012-014-016-OKZ002-021400-
TEXAS PANHANDLE/OKLAHOMA PANHANDLE

CITY           SKY/WX    TMP DP  RH WIND       PRES   REMARKS
AMARILLO       SUNNY     38  35  89 W12       30.26R WCI  30
BORGER         SUNNY     40  37  89 NW6       30.26R
CANADIAN       SUNNY     42  40  95 N3        30.23R
DALHART        SUNNY     36  31  82 NW9       30.28R WCI  29
DUMAS          SUNNY     36  33  91 NW8       30.26R WCI  29
GUYMON         SUNNY     39  32  76 NW13      30.24R WCI  31
HEREFORD       SUNNY     37  36  96 NW9       30.28R WCI  30
$$

TXZ026-029-035-045-048-021400-
SOUTHERN PANHANDLE/SOUTH PLAINS/ROLLING PLAINS

CITY           SKY/WX    TMP DP  RH WIND       PRES   REMARKS
CHILDRESS      SUNNY     45  39  79 NW8       30.25R
SEMINOLE       PTSUNNY   42  35  75 N5        30.29R
LUBBOCK        MOSUNNY   42  37  82 N9        30.25R
SNYDER           N/A     46  39  78 N10       30.25F
$$

TXZ052-054-060>062-072-078-127-140-154-169-021400-
PERMIAN BASIN/CONCHO VALLEY/BIG COUNTRY/EDWARDS PLATEAU

CITY           SKY/WX    TMP DP  RH WIND       PRES   REMARKS
ABILENE        LGT RAIN  48  45  89 N13       30.21R
BIG SPRING     CLOUDY    43  37  80 N8        30.27R
BROWNWOOD      CLOUDY    50  48  93 NW13      30.19R
JUNCTION       CLOUDY    54  45  71 N9        30.16R
MIDLAND        CLOUDY    46  39  76 N15       30.25R
ODESSA         CLOUDY    46  37  71 N10       30.26R
SAN ANGELO     CLOUDY    50  45  83 N13G21    30.22R
WINK           MOSUNNY   43  35  73 N8        30.27R
$$

TXZ055-058-074-075-080-082-021400-
FAR WEST/SOUTHWEST MOUNTAINS/TRANS PECOS

CITY           SKY/WX    TMP DP  RH WIND       PRES   REMARKS
ALPINE         CLOUDY    43  36  76 NE12      30.31R
DRYDEN           N/A     55  42  61 N14       30.20R
EL PASO        PTCLDY    45  34  65 N6        30.23R
FORT STOCKTON  CLOUDY    49  37  63 N12       30.26R
MARFA          CLOUDY    42  36  79 N17       30.25R
PRESIDIO       CLOUDY    56  38  49 MISG      30.19R
$$

TXZ014-016-019-021>030-083-021400
TEXAS TECH WEST TEXAS MESONET/TEXAS PANHANDLE/NORTHERN SOUTH PLAINS

CITY           SKY/WX    TMP DP  RH WIND       PRES   REMARKS
ABERNATHY 5ENE   N/A     40  37  91 NW9       30.28R WCI  34
AMARILLO 9NNE    N/A     37  36  96 W7        30.28R WCI  31
AMARILLO 7SSE    N/A     38  36  94 NW9       30.28R WCI  31
AMHERST 1NE      N/A     38  36  91 NW13      30.28R WCI  30
BOOTLEG 11WNW    N/A     34  32  92 NW9       30.31R WCI  27
CANADIAN 6E      N/A     40  38  94 NW7       30.22R
CAPROCK CYN SP   N/A     46  38  74 NW9       30.27R
CHILDRESS 2NNE   N/A     43  40  89 NW7       30.26R
CLARENDON 2WSW   N/A     40  38  89 NW10      30.26R WCI  34
CLAUDE 12SW      N/A     38  36  92 W9        30.26R WCI  32
DIMMITT 2NE      N/A     34  33  96 W8        30.28R WCI  27
FLOYDADA 2NNE    N/A     40  38  93 NW8       30.25R WCI  34
FRIONA 2NE       N/A     34  33  96 NW8       30.30R WCI  28
GOODLETT 3W      N/A     44  40  87 W6        30.25R
HART 3N          N/A     36  35  94 NW10      30.27R WCI  29
HEREFORD 2NW     N/A     35  33  92 NW10      30.30R WCI  27
MCLEAN 1E        N/A     41  38  92 NW9       30.22R
MEMPHIS 1NE      N/A     44  39  82 NW5       30.27R
MULESHOE 2SSW    N/A     37  35  92 NW9       30.29R WCI  30
OLTON 6S         N/A     39  36  89 NW12      30.27R WCI  31
PALO DURO SP     N/A     38  35  89 NW9       30.28R WCI  31
PAMPA 2E         N/A     40  38  93 W12       30.24R WCI  32
PLAINVIEW 1S     N/A     40  37  91 NW8       30.27R WCI  34
SILVERTON 7ESE   N/A     40  38  91 NW3       30.25R
TULIA 2ENE       N/A     36  36  99 NW10      30.27R WCI  28
TURKEY 2WSW      N/A     43  40  88 NW10      30.26R
UMBARGER 3NNE    N/A     35  33  94 NW9       30.28  WCI  27
$$

TXZ033>036-039>041-045>048-021400
TEXAS TECH WEST TEXAS MESONET/SOUTH PLAINS

CITY           SKY/WX    TMP DP  RH WIND       PRES   REMARKS
AIKEN 3WSW       N/A     40  37  91 NW9       30.27R WCI  34
ANDREWS 2NE      N/A     42  34  75 NW6       30.29S
ANTON 6SSW       N/A     39  36  90 NW6       30.28R WCI  34
BROWNFIELD 2S    N/A     41  36  81 N2        30.29R
DENVR CTY 7WNW   N/A     38  33  82 N2        30.29R
GAIL 2ESE        N/A     45  38  75 N7        30.27R
LAMESA 2SE       N/A     44  37  75 N7        30.28R
LEVELLAND 4S     N/A     40  36  84 NW9       30.28R WCI  35
LUBBOCK 3WNW     N/A     42  36  80 NW5       30.28R
MORTON 1ENE      N/A     39  35  85 NW9       30.28R WCI  33
ODONNELL 1N      N/A     43  35  75 N10       30.27S
PLAINS 3N        N/A     41  36  81 N12       30.28R
RALLS 1SE        N/A     41  37  84 N5        30.28R
REESE CENTER     N/A     40  37  86 NW10      30.28R WCI  34
SEAGRAVES 1SW    N/A     40  35  84 NW3       30.29R
SEMINOLE 2NNE    N/A     41  35  78 N5        30.29R
SLATON 2NE       N/A     43  37  80 N2        30.28R
SNYDER 3E        N/A     46  40  79 N12       30.24S
SUNDOWN 8SW      N/A     41  36  80 NW9       30.27R
TAHOKA 3NNE      N/A     42  37  80 N6        30.28
WOLFFORTH 6SSW   N/A     41  35  80 NW2       30.28R
$$

TXZ031-032-036>038-042>044-021400-
TEXAS TECH WEST TEXAS MESONET/ROLLING PLAINS

CITY           SKY/WX    TMP DP  RH WIND       PRES   REMARKS
ASPERMONT 3NE    N/A     47  41  78 NW12      30.25S
FLUVANNA 3WNW    N/A     44  37  74 N12       30.26R
GRAHAM 5SSW      N/A     43  37  77 N9        30.27R
GUTHRIE 10WSW    N/A     46  39  78 NW8       30.25R
HASKELL 1NW      N/A     49  41  74 N9        30.24R
JAYTON 1SSE      N/A     47  39  75 N8        30.26R
KNOX CITY 3NW    N/A     49  41  74 NW8       30.26R
LK A HENRY 1NW   N/A     45  38  75 N3        30.28R
NORTHFIELD 1S    N/A     44  40  87 NW5       30.27R
ODELL 4ENE       N/A     47  43  88 W7        30.26R
PADUCAH 10SW     N/A     45  40  85 NW9       30.26R
POST 1NE         N/A     46  37  72 NW9       30.27R
RRING SPRGS 3N   N/A     43  40  88 N7        30.26R
SEYMOUR 3NW      N/A     49  43  81 NW12      30.23S
SPUR 1W          N/A     46  39  75 N8        30.26R
WEINERT 2NNE     N/A     48  43  81 NW6       30.25R
WHITE RVR 6NE    N/A     40  36  84 NW5       30.27R
$$

TXZ052-054-060>062-072-078-127-140-154-169-021400-
TEXAS TECH WEST TEXAS MESONET/PERMIAN BASIN/
CONCHO VALLEY/BIG COUNTRY/EDWARDS PLATEAU

CITY           SKY/WX    TMP DP  RH WIND       PRES   REMARKS
COYANOSA 2N      N/A     50  36  59 N13       30.29R
JUNCTION 1SSW    N/A     53  46  77 N8        30.18R
MERTZON 3NNE     N/A     47  44  86 N8        30.25R
SAN ANGELO 7NW   N/A     48  44  85 NW9       30.23R
STRLNG CT 4WSW   N/A     46  43  91 NW7       30.25R
ST LAWRNCE 5SW   N/A     46  42  84 N13       30.25R
SWEETWATR 11SW   N/A     45  42  88 N12       30.26R
WALL 1E          N/A     49  44  84 N14       30.23R
$$

TXZ055-058-074-075-080-082-021400-
TEXAS TECH WEST TEXAS MESONET/FAR WEST/SOUTHWEST MOUNTAINS/TRANS PECOS

CITY           SKY/WX    TMP DP  RH WIND       PRES   REMARKS
PRSMN GAP BBNP   N/A     55  41  60 NE16      30.20R
GUADLPE MTN NP   N/A     32  31  94 NE5       30.28R WCI  28
$$




USA.gov is the U.S. government's official web portal to all federal, state and local government web resources and services.